TimeMDT,TemperatureF,Dew PointF,Humidity,Sea Level PressureIn,VisibilityMPH,Wind Direction,Wind SpeedMPH,Gust SpeedMPH,PrecipitationIn,Events,Conditions,WindDirDegrees,DateUTC
12:15 AM,59.0,42.8,55,30.20,10.0,Calm,Calm,-,N/A,,Clear,0,2013-08-17 06:15:00
12:35 AM,57.2,44.6,63,30.21,10.0,ESE,3.5,-,N/A,,Clear,120,2013-08-17 06:35:00
12:55 AM,59.0,44.6,59,30.21,10.0,SE,3.5,-,N/A,,Clear,140,2013-08-17 06:55:00
1:15 AM,59.0,44.6,59,30.21,10.0,Calm,Calm,-,N/A,,Clear,0,2013-08-17 07:15:00
1:35 AM,60.8,42.8,52,30.20,10.0,Calm,Calm,-,N/A,,Clear,0,2013-08-17 07:35:00
1:55 AM,59.0,44.6,59,30.21,10.0,Calm,Calm,-,N/A,,Clear,0,2013-08-17 07:55:00
2:15 AM,60.8,44.6,55,30.21,10.0,Calm,Calm,-,N/A,,Clear,0,2013-08-17 08:15:00
2:35 AM,59.0,46.4,63,30.21,10.0,Calm,Calm,-,N/A,,Clear,0,2013-08-17 08:35:00
2:55 AM,57.2,46.4,67,30.20,10.0,SE,3.5,-,N/A,,Clear,130,2013-08-17 08:55:00
3:15 AM,55.4,46.4,72,30.20,10.0,Calm,Calm,-,N/A,,Clear,0,2013-08-17 09:15:00
3:35 AM,59.0,42.8,55,30.20,10.0,Calm,Calm,-,N/A,,Clear,0,2013-08-17 09:35:00
3:55 AM,59.0,44.6,59,30.20,10.0,Calm,Calm,-,N/A,,Clear,0,2013-08-17 09:55:00
4:15 AM,57.2,44.6,63,30.20,10.0,Calm,Calm,-,N/A,,Clear,0,2013-08-17 10:15:00
4:35 AM,57.2,46.4,67,30.20,10.0,Calm,Calm,-,N/A,,Clear,0,2013-08-17 10:35:00
4:55 AM,57.2,46.4,67,30.20,10.0,Calm,Calm,-,N/A,,Clear,0,2013-08-17 10:55:00
5:15 AM,59.0,46.4,63,30.21,10.0,Calm,Calm,-,N/A,,Clear,0,2013-08-17 11:15:00
5:35 AM,55.4,46.4,72,30.21,10.0,Calm,Calm,-,N/A,,Clear,0,2013-08-17 11:35:00
5:55 AM,51.8,44.6,76,30.21,10.0,Calm,Calm,-,N/A,,Clear,0,2013-08-17 11:55:00
6:15 AM,51.8,44.6,76,30.21,10.0,Calm,Calm,-,N/A,,Clear,0,2013-08-17 12:15:00
6:35 AM,51.8,42.8,71,30.21,10.0,Calm,Calm,-,N/A,,Clear,0,2013-08-17 12:35:00
6:55 AM,51.8,42.8,71,30.22,10.0,Calm,Calm,-,N/A,,Clear,0,2013-08-17 12:55:00
7:15 AM,51.8,42.8,71,30.22,10.0,Calm,Calm,-,N/A,,Clear,0,2013-08-17 13:15:00
7:35 AM,53.6,42.8,67,30.23,10.0,Calm,Calm,-,N/A,,Clear,0,2013-08-17 13:35:00
7:55 AM,57.2,46.4,67,30.23,10.0,Calm,Calm,-,N/A,,Clear,0,2013-08-17 13:55:00
8:15 AM,60.8,44.6,55,30.23,10.0,Calm,Calm,-,N/A,,Clear,0,2013-08-17 14:15:00
8:35 AM,62.6,46.4,55,30.24,10.0,Calm,Calm,-,N/A,,Clear,0,2013-08-17 14:35:00
8:55 AM,64.4,44.6,49,30.24,10.0,Calm,Calm,-,N/A,,Clear,0,2013-08-17 14:55:00
9:15 AM,66.2,42.8,43,30.24,10.0,Calm,Calm,-,N/A,,Clear,0,2013-08-17 15:15:00
9:35 AM,69.8,44.6,40,30.24,10.0,Calm,Calm,-,N/A,,Clear,0,2013-08-17 15:35:00
9:55 AM,69.8,42.8,38,30.23,10.0,Calm,Calm,-,N/A,,Clear,0,2013-08-17 15:55:00
10:15 AM,73.4,42.8,33,30.22,10.0,Calm,Calm,-,N/A,,Clear,0,2013-08-17 16:15:00
10:35 AM,75.2,42.8,31,30.22,10.0,Calm,Calm,-,N/A,,Clear,0,2013-08-17 16:35:00
10:55 AM,78.8,41.0,26,30.21,10.0,Calm,Calm,-,N/A,,Clear,0,2013-08-17 16:55:00
11:15 AM,80.6,41.0,24,30.21,10.0,Calm,Calm,-,N/A,,Clear,0,2013-08-17 17:15:00
11:35 AM,86.0,42.8,22,30.20,10.0,SSW,4.6,-,N/A,,Clear,210,2013-08-17 17:35:00
11:55 AM,89.6,41.0,18,30.19,10.0,SW,16.1,-,N/A,,Clear,230,2013-08-17 17:55:00
12:15 PM,91.4,41.0,17,30.19,10.0,WSW,17.3,20.7,N/A,,Clear,240,2013-08-17 18:15:00
12:35 PM,89.6,41.0,18,30.17,10.0,SW,18.4,-,N/A,,Clear,230,2013-08-17 18:35:00
12:55 PM,91.4,39.2,16,30.16,10.0,SW,15.0,23.0,N/A,,Clear,230,2013-08-17 18:55:00
1:15 PM,91.4,37.4,15,30.15,10.0,SW,13.8,-,N/A,,Clear,220,2013-08-17 19:15:00
1:35 PM,93.2,37.4,14,30.14,10.0,WSW,13.8,-,N/A,,Clear,240,2013-08-17 19:35:00
1:55 PM,95.0,35.6,12,30.13,10.0,WSW,12.7,-,N/A,,Clear,250,2013-08-17 19:55:00
2:15 PM,96.8,32.0,10,30.13,10.0,WSW,12.7,16.1,N/A,,Clear,240,2013-08-17 20:15:00
2:35 PM,89.6,33.8,14,30.13,10.0,SSE,4.6,-,N/A,Thunderstorm,Thunderstorm,150,2013-08-17 20:35:00
2:55 PM,87.8,35.6,16,30.14,10.0,East,5.8,24.2,N/A,,Scattered Clouds,100,2013-08-17 20:55:00
3:15 PM,82.4,37.4,20,30.16,10.0,East,9.2,-,N/A,Thunderstorm,Mostly Cloudy,80,2013-08-17 21:15:00
3:35 PM,78.8,44.6,30,30.20,10.0,ENE,8.1,11.5,N/A,Rain-Thunderstorm,Rain,60,2013-08-17 21:35:00
3:55 PM,69.8,48.2,46,30.24,2.0,NW,15.0,31.1,N/A,Rain-Thunderstorm,Heavy Thunderstorms and Rain,310,2013-08-17 21:55:00
4:15 PM,62.6,53.6,72,30.28,10.0,WNW,13.8,-,N/A,Rain-Thunderstorm,Thunderstorms and Rain,300,2013-08-17 22:15:00
4:35 PM,60.8,55.4,82,30.33,10.0,ESE,3.5,-,N/A,Rain-Thunderstorm,Light Thunderstorms and Rain,120,2013-08-17 22:35:00
4:55 PM,60.8,55.4,82,30.37,4.0,Calm,Calm,-,N/A,Rain,Heavy Rain,0,2013-08-17 22:55:00
5:15 PM,60.8,55.4,82,30.36,5.0,East,15.0,-,N/A,Rain,Rain,100,2013-08-17 23:15:00
5:35 PM,60.8,55.4,82,30.33,4.0,East,17.3,27.6,N/A,Rain,Light Rain,90,2013-08-17 23:35:00
5:55 PM,60.8,53.6,77,30.32,10.0,East,15.0,-,N/A,,Scattered Clouds,80,2013-08-17 23:55:00
6:15 PM,64.4,53.6,68,30.31,10.0,NE,6.9,-,N/A,,Clear,50,2013-08-18 00:15:00
6:35 PM,66.2,51.8,60,30.29,10.0,North,8.1,-,N/A,,Clear,10,2013-08-18 00:35:00
6:55 PM,68.0,51.8,56,30.27,10.0,WSW,4.6,-,N/A,,Clear,250,2013-08-18 00:55:00
7:15 PM,66.2,51.8,60,30.25,10.0,WSW,5.8,-,N/A,,Clear,250,2013-08-18 01:15:00
7:35 PM,66.2,53.6,64,30.24,10.0,SW,6.9,-,N/A,,Clear,230,2013-08-18 01:35:00
7:55 PM,64.4,51.8,64,30.23,10.0,South,3.5,-,N/A,,Clear,170,2013-08-18 01:55:00
8:15 PM,62.6,51.8,68,30.23,10.0,SSE,5.8,-,N/A,,Clear,150,2013-08-18 02:15:00
8:35 PM,62.6,51.8,68,30.23,10.0,ESE,3.5,-,N/A,,Clear,120,2013-08-18 02:35:00
8:55 PM,60.8,53.6,77,30.22,10.0,NNE,3.5,-,N/A,,Clear,20,2013-08-18 02:55:00
9:15 PM,60.8,53.6,77,30.22,10.0,North,3.5,-,N/A,,Clear,360,2013-08-18 03:15:00
9:35 PM,59.0,53.6,82,30.22,10.0,Calm,Calm,-,N/A,,Clear,0,2013-08-18 03:35:00
9:55 PM,59.0,51.8,77,30.22,10.0,Calm,Calm,-,N/A,,Clear,0,2013-08-18 03:55:00
10:15 PM,57.2,51.8,82,30.23,10.0,South,3.5,-,N/A,,Clear,180,2013-08-18 04:15:00
10:35 PM,59.0,51.8,77,30.23,10.0,Calm,Calm,-,N/A,,Clear,0,2013-08-18 04:35:00
10:55 PM,55.4,51.8,88,30.23,10.0,Calm,Calm,-,N/A,,Clear,0,2013-08-18 04:55:00
11:15 PM,55.4,51.8,88,30.22,10.0,Calm,Calm,-,N/A,,Clear,0,2013-08-18 05:15:00
11:35 PM,55.4,51.8,88,30.23,10.0,Calm,Calm,-,N/A,,Clear,0,2013-08-18 05:35:00
11:55 PM,53.6,51.8,94,30.23,10.0,Calm,Calm,-,N/A,,Clear,0,2013-08-18 05:55:00